This is the latest recevied weather packets stored in our database for station/object W3EJE-13. If no packets are shown the sender has not sent any weather packets the latest 1 day(s).
| Time | Temp. | Humidity | Pressure | Rain* | Wind** | Luminosity | Snow |
|---|---|---|---|---|---|---|---|
| 1778093846 | 13.33° C | 97% | 1010.7 hPa | 0 mm | - | 62 W/m² | - |
| 1778093542 | 13.33° C | 96% | 1010.6 hPa | 0 mm | - | 76 W/m² | - |
| 1778092937 | 13.33° C | 96% | 1010.7 hPa | 0 mm | - | 77 W/m² | - |
| 1778091724 | 13.33° C | 98% | 1010.8 hPa | 0 mm | - | 71 W/m² | - |
| 1778089905 | 13.33° C | 98% | 1010.7 hPa | 0 mm | - | 45 W/m² | - |
| 1778089598 | 13.89° C | 98% | 1010.7 hPa | 0 mm | - | 45 W/m² | - |
| 1778089294 | 14.44° C | 96% | 1010.5 hPa | 0 mm | - | 49 W/m² | - |
| 1778086570 | 15° C | 96% | 1009.7 hPa | 0 mm | - | 39 W/m² | - |
| 1778085963 | 15° C | 98% | 1009.9 hPa | 0 mm | - | 34 W/m² | - |
| 1778083223 | 15° C | 99% | 1009.7 hPa | 0 mm | - | 40 W/m² | - |
| 1778081818 | 15° C | 99% | 1009.6 hPa | 0 mm | - | 33 W/m² | - |
| 1778078790 | 15° C | 98% | 1008.6 hPa | 0 mm | - | 54 W/m² | - |
| 1778078486 | 15° C | 99% | 1008.9 hPa | 0 mm | - | 69 W/m² | - |
| 1778078184 | 15° C | 99% | 1008.8 hPa | 0 mm | - | 45 W/m² | - |
| 1778077278 | 14.44° C | 99% | 1008.8 hPa | 0 mm | - | 60 W/m² | - |
| 1778076975 | 14.44° C | 99% | 1008.6 hPa | 0 mm | - | 65 W/m² | - |
| 1778076673 | 13.89° C | 99% | 1009.1 hPa | 0 mm | - | 48 W/m² | - |
| 1778075157 | 13.89° C | 99% | 1009 hPa | 0 mm | - | 46 W/m² | - |
| 1778072732 | 13.33° C | 99% | 1009.4 hPa | 3.05 mm | - | 32 W/m² | - |
| 1778071825 | 13.33° C | 99% | 1009.1 hPa | 1.78 mm | - | 21 W/m² | - |
| 1778071523 | 13.33° C | 99% | 1009.1 hPa | 0 mm | - | 28 W/m² | - |
| 1778070918 | 13.33° C | 99% | 1009.2 hPa | 0 mm | - | 32 W/m² | - |
| 1778070616 | 13.33° C | 99% | 1009.3 hPa | 0 mm | - | 50 W/m² | - |
| 1778069708 | 13.33° C | 99% | 1009.5 hPa | 0 mm | - | 42 W/m² | - |
| 1778069404 | 12.78° C | 99% | 1009.4 hPa | 0 mm | - | 29 W/m² | - |
* Rain latest hour (hover to see other rain measurements)
** Current wind speed in m/s (hover to see current wind gust speed)